Weather Roundup
Issued by NWS Chicago, IL

Home | Current Version | Previous Version | Graphics & Text | Print | Product List | Glossary On
Versions: 1 2 3 4 5 6 7 8 9 10 11 12 13 14 15 16 17 18 19 20 21 22 23 24 25 26 27 28 29 30 31 32 33 34 35 36 37 38 39 40 41 42 43 44 45 46 47 48 49 50
000
NZUS59 KLOT 241406
HRRLOT

CHICAGO AREA WEATHER ROUNDUP
NATIONAL WEATHER SERVICE CHICAGO/ROMEOVILLE IL
800 AM CST MON NOV 24 2014

NOTE: "FAIR" INDICATES FEW OR NO CLOUDS BELOW 12,000 FEET WITH NO
SIGNIFICANT WEATHER AND/OR OBSTRUCTIONS TO VISIBILITY.

* THESE STATIONS ARE NOT UNDER NWS QUALITY CONTROL. THEY ALSO MAY NOT
  REPORT WEATHER SUCH AS PRECIPITATION OR FOG.

ILZ005-006-012>014-019>023-241500-
NORTHEAST ILLINOIS

CITY           SKY/WX    TMP DP  RH WIND       PRES   REMARKS
OHARE          LGT RAIN  45  44  97 W15       29.10R FOG
MIDWAY         RAIN      48  46  93 SW21      29.11R FOG
AURORA         RAIN      41  38  89 W22       29.16R FOG
LANSING*       RAIN      44  44  98 W18       29.12R
JOLIET*        LGT RAIN  37  35  94 W15G25    29.18R
WAUKEGAN       CLOUDY    46  45  96 SW3       29.07R FOG
DUPAGE AIRPORT RAIN      42  40  92 W13       29.13R FOG
WHEELING       LGT RAIN  47  45  93 W8        29.10R FOG
KANKAKEE*      LGT RAIN  38  37  93 W29G39    29.19R
MORRIS*        RAIN      37  37  99 W24G31    29.18R
LEWIS AIRPORT* RAIN      38  38 100 W25G33    29.16R
NORTHERLY IS     N/A     48  46  93 SW8         N/A
$$

WIZ051-052-058>065-066-070>072-241500-
SOUTHEAST WISCONSIN

CITY           SKY/WX    TMP DP  RH WIND       PRES   REMARKS
MILWAUKEE      CLOUDY    46  44  93 W7        29.05F FOG
KENOSHA*       CLOUDY    46  45  96 W7        29.06S FOG
RACINE*        CLOUDY    46  44  93 W5        29.07S
BURLINGTON     CLOUDY    43  43 100 W10       29.08R
WAUKESHA       DRIZZLE   39  39 100 W12       29.07S FOG
WEST BEND      CLOUDY    41  39  93 W10       29.06R FOG
$$

INZ001>003-010>013-019-020-241500-
NORTHWEST INDIANA

CITY           SKY/WX    TMP DP  RH WIND       PRES   REMARKS
GARY*          RAIN      50  50 100 SW13      29.10R
MICHIGAN CITY* NOT AVBL
RENSSELAER*    NOT AVBL
VALPARAISO     HVY RAIN  49  49 100 W13       29.10R FOG
$$

LMZ740>746-241500-
SOUTHERN LAKE MICHIGAN

STATION/POSITION TIME  SKY/WX   TEMP WIND        PRES    VSBY
                                AIR  DIR/SP/G
                 (UTC)          (F)  (DEG/KT/KT) (MB)    (MI)
HARRISON CRIB    1400            48  250/  8/ 10   N/A
BURNHAM HARBOR   1400            48  240/  8/  9   N/A
CALUMET HARBOR   1400            48  220/  7/ 12  984.6R
BURNS HARBOR     NOT AVBL
MICHIGAN CITY    1400            49  220/  7/  8   N/A
$$

ABBREVIATIONS USED IN REMARKS
   TC - TEMPERATURE IN CELSIUS
  WCI - WIND CHILL INDEX
   HX - HEAT INDEX
  VSB - VISIBILITY
$$



USA.gov is the U.S. government's official web portal to all federal, state and local government web resources and services.